Starlink 32092

operational
NORAD ID: 59700 Int'l Des: 2024-086 Owner: SPXS Country: US Constellation: starlink
LEOCIRCULAR

Über Starlink 32092

Beschreibung wird geladen...

Live-Position

3D-Globus wird geladen...

Nächste Überflüge

Höhenverlauf

Altitude vs Time

uPlot chart will show altitude changes over time

Zweizeiliger Elementsatz

1 59700U 24086U 26034.96789917 -.00000287 00000-0 -92054-6 0 9997
2 59700 42.9986 250.4407 0000995 274.2985 85.7753 15.27574497 98950
Epoch: 3. Feb. 2026 • Age: 12 hours

Aktueller Status

Höhe 490.8 km
Geschwindigkeit 7.62 km/s
Subsatellitenpunkt -30.53°S, 163.85°E
Startdatum 8. Mai 2024
Alter 1.7 years
Typ internet

Technische Details

Klassifizierung Payload
Masse 730.00 kg
Trockenmasse 700.00 kg
Gesamtmasse 730.00 kg
Länge 0.30 m
Durchmesser 4.10 m
Spannweite 29.00 m
Form Box + pan
Hersteller SPXS
Bus-Typ Starlink V2M
Phasenstatus In Orbit
Besitzer/Staat SPXS/US

Große Konstellationen

Loading constellations...